Time,TemperatureF,DewpointF,PressureIn,WindDirection,WindDirectionDegrees,WindSpeedMPH,WindSpeedGustMPH,Humidity,HourlyPrecipIn,Conditions,Clouds,dailyrainin,SoftwareType,DateUTC
2013-03-12 00:01:00,20.6,16.0,28.87,West,270,3.7,10.0,83,0.00,,,0.00,Rainwise IP-100,2013-03-12 05:01:00,
2013-03-12 00:06:00,20.5,16.0,28.87,WNW,292,3.7,8.9,83,0.00,,,0.00,Rainwise IP-100,2013-03-12 05:06:00,
2013-03-12 00:11:00,20.4,16.0,28.87,WSW,247,3.5,7.0,83,0.00,,,0.00,Rainwise IP-100,2013-03-12 05:11:00,
2013-03-12 00:16:00,20.4,16.0,28.88,West,270,2.8,7.0,83,0.00,,,0.00,Rainwise IP-100,2013-03-12 05:16:00,
2013-03-12 00:22:00,20.4,16.0,28.87,WSW,247,2.1,5.1,84,0.00,,,0.00,Rainwise IP-100,2013-03-12 05:22:00,
2013-03-12 00:27:00,20.6,16.0,28.87,WNW,292,1.4,5.1,84,0.00,,,0.00,Rainwise IP-100,2013-03-12 05:27:00,
2013-03-12 00:32:00,20.7,16.0,28.87,SW,225,4.0,6.3,84,0.00,,,0.00,Rainwise IP-100,2013-03-12 05:32:00,
2013-03-12 00:37:00,20.8,16.0,28.87,WSW,247,4.0,5.6,84,0.00,,,0.00,Rainwise IP-100,2013-03-12 05:37:00,
2013-03-12 00:42:00,21.0,16.0,28.87,WNW,292,1.6,7.2,83,0.00,,,0.00,Rainwise IP-100,2013-03-12 05:42:00,
2013-03-12 00:47:00,21.2,16.0,28.87,WSW,247,1.2,7.9,83,0.00,,,0.00,Rainwise IP-100,2013-03-12 05:47:00,
2013-03-12 00:52:00,21.3,16.0,28.86,West,270,2.1,7.9,83,0.00,,,0.00,Rainwise IP-100,2013-03-12 05:52:00,
2013-03-12 00:57:00,21.5,18.0,28.87,WSW,247,4.7,8.6,82,0.00,,,0.00,Rainwise IP-100,2013-03-12 05:57:00,
2013-03-12 01:02:00,21.7,18.0,28.87,WNW,292,1.6,10.0,81,0.00,,,0.00,Rainwise IP-100,2013-03-12 06:02:00,
2013-03-12 01:07:00,21.8,18.0,28.86,West,270,3.7,8.4,81,0.00,,,0.00,Rainwise IP-100,2013-03-12 06:07:00,
2013-03-12 01:12:00,21.9,18.0,28.86,WNW,292,5.4,12.4,80,0.00,,,0.00,Rainwise IP-100,2013-03-12 06:12:00,
2013-03-12 01:17:00,21.9,16.0,28.86,WNW,292,1.4,9.3,79,0.00,,,0.00,Rainwise IP-100,2013-03-12 06:17:00,
2013-03-12 01:22:00,22.0,16.0,28.86,WSW,247,4.7,10.7,79,0.00,,,0.00,Rainwise IP-100,2013-03-12 06:22:00,
2013-03-12 01:27:00,22.0,16.0,28.86,WSW,247,1.4,7.5,79,0.00,,,0.00,Rainwise IP-100,2013-03-12 06:27:00,
2013-03-12 01:32:00,22.0,16.0,28.86,WSW,247,7.2,9.8,78,0.00,,,0.00,Rainwise IP-100,2013-03-12 06:32:00,
2013-03-12 01:37:00,22.1,16.0,28.86,WNW,292,7.2,11.4,78,0.00,,,0.00,Rainwise IP-100,2013-03-12 06:37:00,
2013-03-12 01:42:00,22.2,16.0,28.86,West,270,4.4,9.6,77,0.00,,,0.00,Rainwise IP-100,2013-03-12 06:42:00,
2013-03-12 01:47:00,22.2,16.0,28.86,WSW,247,7.0,8.6,77,0.00,,,0.00,Rainwise IP-100,2013-03-12 06:47:00,
2013-03-12 01:52:00,22.2,16.0,28.86,WSW,247,5.6,9.3,77,0.00,,,0.00,Rainwise IP-100,2013-03-12 06:52:00,
2013-03-12 01:57:00,22.2,16.0,28.86,WSW,247,4.9,10.3,77,0.00,,,0.00,Rainwise IP-100,2013-03-12 06:57:00,
2013-03-12 02:02:00,22.2,16.0,28.86,WSW,247,1.4,10.0,76,0.00,,,0.00,Rainwise IP-100,2013-03-12 07:02:00,
2013-03-12 02:07:00,22.3,16.0,28.86,West,270,3.3,9.1,76,0.00,,,0.00,Rainwise IP-100,2013-03-12 07:07:00,
2013-03-12 02:12:00,22.2,16.0,28.86,SW,225,2.8,10.5,77,0.00,,,0.00,Rainwise IP-100,2013-03-12 07:12:00,
2013-03-12 02:17:00,22.1,16.0,28.86,West,270,4.7,8.4,77,0.00,,,0.00,Rainwise IP-100,2013-03-12 07:17:00,
2013-03-12 02:22:00,22.1,16.0,28.86,NW,315,3.5,10.5,77,0.00,,,0.00,Rainwise IP-100,2013-03-12 07:22:00,
2013-03-12 02:27:00,22.1,16.0,28.86,WSW,247,10.3,11.4,77,0.00,,,0.00,Rainwise IP-100,2013-03-12 07:27:00,
2013-03-12 02:32:00,22.2,16.0,28.86,WSW,247,5.8,13.3,77,0.00,,,0.00,Rainwise IP-100,2013-03-12 07:32:00,
2013-03-12 02:37:00,22.2,16.0,28.86,WSW,247,6.5,15.4,77,0.00,,,0.00,Rainwise IP-100,2013-03-12 07:37:00,
2013-03-12 02:42:00,22.3,16.0,28.86,SW,225,10.5,12.8,77,0.00,,,0.00,Rainwise IP-100,2013-03-12 07:42:00,
2013-03-12 02:47:00,22.3,16.0,28.87,WSW,247,5.4,14.0,78,0.00,,,0.00,Rainwise IP-100,2013-03-12 07:47:00,
2013-03-12 02:52:00,22.2,16.0,28.86,West,270,6.1,13.8,78,0.00,,,0.00,Rainwise IP-100,2013-03-12 07:52:00,
2013-03-12 02:57:00,22.2,16.0,28.87,NNW,337,3.0,13.3,79,0.00,,,0.00,Rainwise IP-100,2013-03-12 07:57:00,
2013-03-12 03:02:00,22.3,16.0,28.86,WSW,247,9.6,12.8,79,0.00,,,0.00,Rainwise IP-100,2013-03-12 08:02:00,
2013-03-12 03:07:00,22.3,18.0,28.86,South,180,1.4,11.9,80,0.00,,,0.00,Rainwise IP-100,2013-03-12 08:07:00,
2013-03-12 03:12:00,22.3,18.0,28.86,North,360,1.9,11.9,80,0.00,,,0.00,Rainwise IP-100,2013-03-12 08:12:00,
2013-03-12 03:17:00,22.3,18.0,28.86,WNW,292,2.8,10.7,80,0.00,,,0.00,Rainwise IP-100,2013-03-12 08:17:00,
2013-03-12 03:22:00,22.4,18.0,28.86,WSW,247,3.3,10.0,81,0.00,,,0.00,Rainwise IP-100,2013-03-12 08:22:00,
2013-03-12 03:27:00,22.4,18.0,28.86,NW,315,2.3,9.6,81,0.00,,,0.00,Rainwise IP-100,2013-03-12 08:27:00,
2013-03-12 03:32:00,22.4,18.0,28.86,North,360,7.0,8.9,82,0.00,,,0.00,Rainwise IP-100,2013-03-12 08:32:00,
2013-03-12 03:37:00,22.5,18.0,28.86,West,270,5.1,11.7,82,0.00,,,0.00,Rainwise IP-100,2013-03-12 08:37:00,
2013-03-12 03:42:00,22.5,18.0,28.86,WNW,292,3.0,7.7,82,0.00,,,0.00,Rainwise IP-100,2013-03-12 08:42:00,
2013-03-12 03:47:00,22.5,18.0,28.86,NW,315,2.6,8.4,83,0.00,,,0.00,Rainwise IP-100,2013-03-12 08:47:00,
2013-03-12 03:52:00,22.4,18.0,28.86,WSW,247,2.6,9.1,83,0.00,,,0.00,Rainwise IP-100,2013-03-12 08:52:00,
2013-03-12 03:57:00,22.5,18.0,28.86,WSW,247,2.3,6.1,83,0.00,,,0.00,Rainwise IP-100,2013-03-12 08:57:00,
2013-03-12 04:02:00,22.5,18.0,28.86,SSW,202,2.3,6.1,83,0.00,,,0.00,Rainwise IP-100,2013-03-12 09:02:00,
2013-03-12 04:07:00,22.4,18.0,28.86,West,270,2.3,7.0,84,0.00,,,0.00,Rainwise IP-100,2013-03-12 09:07:00,
2013-03-12 04:12:00,22.3,18.0,28.86,NW,315,2.3,7.7,84,0.00,,,0.00,Rainwise IP-100,2013-03-12 09:12:00,
2013-03-12 04:17:00,22.3,18.0,28.86,WSW,247,1.9,7.5,84,0.00,,,0.00,Rainwise IP-100,2013-03-12 09:17:00,
2013-03-12 04:22:00,22.3,18.0,28.86,WNW,292,7.5,8.2,84,0.00,,,0.00,Rainwise IP-100,2013-03-12 09:22:00,
2013-03-12 04:27:00,22.4,18.0,28.86,WSW,247,4.7,9.1,84,0.00,,,0.00,Rainwise IP-100,2013-03-12 09:27:00,
2013-03-12 04:32:00,22.5,18.0,28.86,WNW,292,3.3,11.4,85,0.00,,,0.00,Rainwise IP-100,2013-03-12 09:32:00,
2013-03-12 04:37:00,22.5,18.0,28.86,WSW,247,3.7,9.3,85,0.00,,,0.00,Rainwise IP-100,2013-03-12 09:37:00,
2013-03-12 04:42:00,22.4,18.0,28.86,SW,225,1.4,6.5,85,0.00,,,0.00,Rainwise IP-100,2013-03-12 09:42:00,
2013-03-12 04:47:00,22.4,18.0,28.86,WSW,247,1.4,9.1,85,0.00,,,0.00,Rainwise IP-100,2013-03-12 09:47:00,
2013-03-12 04:52:00,22.5,18.0,28.86,WNW,292,1.9,5.6,85,0.00,,,0.00,Rainwise IP-100,2013-03-12 09:52:00,
2013-03-12 04:57:00,22.5,18.0,28.86,West,270,0.0,8.2,85,0.00,,,0.00,Rainwise IP-100,2013-03-12 09:57:00,
2013-03-12 05:02:00,22.5,18.0,28.87,WSW,247,1.4,9.8,85,0.00,,,0.00,Rainwise IP-100,2013-03-12 10:02:00,
2013-03-12 05:07:00,22.5,18.0,28.86,NNW,337,5.8,11.2,86,0.00,,,0.00,Rainwise IP-100,2013-03-12 10:07:00,
2013-03-12 05:12:00,22.5,18.0,28.86,NW,315,1.6,10.3,86,0.00,,,0.00,Rainwise IP-100,2013-03-12 10:12:00,
2013-03-12 05:17:00,22.6,18.0,28.86,WNW,292,6.1,9.3,86,0.00,,,0.00,Rainwise IP-100,2013-03-12 10:17:00,
2013-03-12 05:22:00,22.6,18.0,28.87,WNW,292,2.6,9.3,86,0.00,,,0.00,Rainwise IP-100,2013-03-12 10:22:00,
2013-03-12 05:27:00,22.6,18.0,28.87,SSW,202,4.0,8.4,86,0.00,,,0.00,Rainwise IP-100,2013-03-12 10:27:00,
2013-03-12 05:32:00,22.6,18.0,28.87,WNW,292,13.3,13.3,86,0.00,,,0.00,Rainwise IP-100,2013-03-12 10:32:00,
2013-03-12 05:37:00,22.5,18.0,28.87,WNW,292,10.7,14.2,85,0.00,,,0.00,Rainwise IP-100,2013-03-12 10:37:00,
2013-03-12 05:42:00,22.4,18.0,28.88,WNW,292,4.9,11.2,85,0.00,,,0.00,Rainwise IP-100,2013-03-12 10:42:00,
2013-03-12 05:47:00,22.4,18.0,28.88,WNW,292,9.3,10.0,85,0.00,,,0.00,Rainwise IP-100,2013-03-12 10:47:00,
2013-03-12 05:52:00,22.4,18.0,28.88,WNW,292,5.6,12.1,85,0.00,,,0.00,Rainwise IP-100,2013-03-12 10:52:00,
2013-03-12 05:57:00,22.3,18.0,28.88,WNW,292,3.3,9.8,85,0.00,,,0.00,Rainwise IP-100,2013-03-12 10:57:00,
2013-03-12 06:02:00,22.3,18.0,28.88,SSE,157,1.6,8.6,85,0.00,,,0.00,Rainwise IP-100,2013-03-12 11:02:00,
2013-03-12 06:07:00,22.3,18.0,28.88,West,270,4.9,9.8,85,0.00,,,0.00,Rainwise IP-100,2013-03-12 11:07:00,
2013-03-12 06:12:00,22.3,18.0,28.88,WNW,292,12.4,12.4,85,0.00,,,0.00,Rainwise IP-100,2013-03-12 11:12:00,
2013-03-12 06:17:00,22.3,18.0,28.89,WNW,292,8.9,14.2,84,0.00,,,0.00,Rainwise IP-100,2013-03-12 11:17:00,
2013-03-12 06:22:00,22.3,18.0,28.89,WNW,292,9.8,11.7,84,0.00,,,0.00,Rainwise IP-100,2013-03-12 11:22:00,
2013-03-12 06:27:00,22.3,18.0,28.89,WSW,247,6.3,10.7,84,0.00,,,0.00,Rainwise IP-100,2013-03-12 11:27:00,
2013-03-12 06:32:00,22.2,18.0,28.89,West,270,6.3,11.2,84,0.00,,,0.00,Rainwise IP-100,2013-03-12 11:32:00,
2013-03-12 06:37:00,22.2,18.0,28.89,NW,315,10.7,14.7,84,0.00,,,0.00,Rainwise IP-100,2013-03-12 11:37:00,
2013-03-12 06:42:00,22.1,18.0,28.89,WNW,292,3.3,12.8,83,0.00,,,0.00,Rainwise IP-100,2013-03-12 11:42:00,
2013-03-12 06:47:00,22.0,18.0,28.89,NW,315,8.6,12.6,83,0.00,,,0.00,Rainwise IP-100,2013-03-12 11:47:00,
2013-03-12 06:52:00,22.0,18.0,28.89,West,270,8.6,14.0,83,0.00,,,0.00,Rainwise IP-100,2013-03-12 11:52:00,
2013-03-12 06:57:00,21.9,18.0,28.89,WNW,292,8.9,14.5,83,0.00,,,0.00,Rainwise IP-100,2013-03-12 11:57:00,
2013-03-12 07:02:00,21.8,18.0,28.90,WNW,292,7.9,10.0,83,0.00,,,0.00,Rainwise IP-100,2013-03-12 12:02:00,
2013-03-12 07:07:00,21.7,18.0,28.89,NW,315,7.5,13.3,83,0.00,,,0.00,Rainwise IP-100,2013-03-12 12:07:00,
2013-03-12 07:12:00,21.7,18.0,28.90,WNW,292,4.7,12.1,83,0.00,,,0.00,Rainwise IP-100,2013-03-12 12:12:00,
2013-03-12 07:17:00,21.6,18.0,28.90,South,180,0.0,10.5,83,0.00,,,0.00,Rainwise IP-100,2013-03-12 12:17:00,
2013-03-12 07:22:00,21.5,18.0,28.90,NW,315,9.1,10.0,83,0.00,,,0.00,Rainwise IP-100,2013-03-12 12:22:00,
2013-03-12 07:27:00,21.5,18.0,28.90,WNW,292,11.7,11.9,83,0.00,,,0.00,Rainwise IP-100,2013-03-12 12:27:00,
2013-03-12 07:32:00,21.4,16.0,28.90,WNW,292,11.9,12.8,83,0.00,,,0.00,Rainwise IP-100,2013-03-12 12:32:00,
2013-03-12 07:37:00,21.4,16.0,28.90,WNW,292,6.1,12.1,84,0.00,,,0.00,Rainwise IP-100,2013-03-12 12:37:00,
2013-03-12 07:42:00,21.4,16.0,28.90,WNW,292,9.1,13.8,84,0.00,,,0.00,Rainwise IP-100,2013-03-12 12:42:00,
2013-03-12 07:47:00,21.4,16.0,28.91,WSW,247,4.4,11.9,83,0.00,,,0.00,Rainwise IP-100,2013-03-12 12:47:00,
2013-03-12 07:52:00,21.4,16.0,28.91,WNW,292,7.9,13.5,83,0.00,,,0.00,Rainwise IP-100,2013-03-12 12:52:00,
2013-03-12 07:57:00,21.3,16.0,28.91,WNW,292,9.3,12.8,83,0.00,,,0.00,Rainwise IP-100,2013-03-12 12:57:00,
2013-03-12 08:02:00,21.2,16.0,28.91,NNW,337,0.0,11.0,83,0.00,,,0.00,Rainwise IP-100,2013-03-12 13:02:00,
2013-03-12 08:07:00,21.1,16.0,28.91,WNW,292,8.2,11.2,83,0.00,,,0.00,Rainwise IP-100,2013-03-12 13:07:00,
2013-03-12 08:12:00,21.0,16.0,28.91,WNW,292,10.0,11.0,83,0.00,,,0.00,Rainwise IP-100,2013-03-12 13:12:00,
2013-03-12 08:17:00,20.9,16.0,28.91,WNW,292,5.6,12.1,83,0.00,,,0.00,Rainwise IP-100,2013-03-12 13:17:00,
2013-03-12 08:22:00,20.8,16.0,28.91,West,270,2.6,12.6,83,0.00,,,0.00,Rainwise IP-100,2013-03-12 13:22:00,
2013-03-12 08:27:00,20.8,16.0,28.92,WNW,292,11.2,12.1,83,0.00,,,0.00,Rainwise IP-100,2013-03-12 13:27:00,
2013-03-12 08:32:00,21.0,16.0,28.92,WNW,292,7.0,12.1,83,0.00,,,0.00,Rainwise IP-100,2013-03-12 13:32:00,
2013-03-12 08:37:00,21.1,16.0,28.92,West,270,4.0,12.4,83,0.00,,,0.00,Rainwise IP-100,2013-03-12 13:37:00,
2013-03-12 08:42:00,21.2,16.0,28.92,NW,315,3.3,14.2,82,0.00,,,0.00,Rainwise IP-100,2013-03-12 13:42:00,
2013-03-12 08:47:00,21.4,16.0,28.93,WNW,292,9.8,14.9,81,0.00,,,0.00,Rainwise IP-100,2013-03-12 13:47:00,
2013-03-12 08:52:00,21.5,18.0,28.93,WNW,292,12.1,12.1,81,0.00,,,0.00,Rainwise IP-100,2013-03-12 13:52:00,
2013-03-12 08:57:00,21.7,18.0,28.93,WNW,292,12.8,16.6,81,0.00,,,0.00,Rainwise IP-100,2013-03-12 13:57:00,
2013-03-12 09:02:00,21.8,18.0,28.93,WNW,292,12.6,14.7,80,0.00,,,0.00,Rainwise IP-100,2013-03-12 14:02:00,
2013-03-12 09:07:00,22.0,18.0,28.94,WNW,292,11.7,14.9,80,0.00,,,0.00,Rainwise IP-100,2013-03-12 14:07:00,
2013-03-12 09:12:00,22.2,18.0,28.94,WNW,292,4.2,14.0,80,0.00,,,0.00,Rainwise IP-100,2013-03-12 14:12:00,
2013-03-12 09:17:00,22.4,16.0,28.94,WNW,292,9.3,15.6,79,0.00,,,0.00,Rainwise IP-100,2013-03-12 14:17:00,
2013-03-12 09:22:00,22.4,16.0,28.94,West,270,7.0,14.2,79,0.00,,,0.00,Rainwise IP-100,2013-03-12 14:22:00,
2013-03-12 09:27:00,22.5,16.0,28.95,East,90,1.6,12.8,79,0.00,,,0.00,Rainwise IP-100,2013-03-12 14:27:00,
2013-03-12 09:32:00,22.6,16.0,28.95,NW,315,4.7,14.5,78,0.00,,,0.00,Rainwise IP-100,2013-03-12 14:32:00,
2013-03-12 09:37:00,22.5,16.0,28.95,WNW,292,3.7,12.8,78,0.00,,,0.00,Rainwise IP-100,2013-03-12 14:37:00,
2013-03-12 09:42:00,22.4,16.0,28.95,WSW,247,3.0,12.4,78,0.00,,,0.00,Rainwise IP-100,2013-03-12 14:42:00,
2013-03-12 09:48:00,22.5,16.0,28.95,WNW,292,9.6,17.3,78,0.00,,,0.00,Rainwise IP-100,2013-03-12 14:48:00,
2013-03-12 09:53:00,22.7,16.0,28.95,West,270,3.0,15.4,78,0.00,,,0.00,Rainwise IP-100,2013-03-12 14:53:00,
2013-03-12 09:58:00,22.6,16.0,28.95,WSW,247,4.7,14.7,77,0.00,,,0.00,Rainwise IP-100,2013-03-12 14:58:00,
2013-03-12 10:03:00,22.6,16.0,28.95,WNW,292,9.3,19.8,77,0.00,,,0.00,Rainwise IP-100,2013-03-12 15:03:00,
2013-03-12 10:08:00,22.7,16.0,28.95,West,270,7.5,19.1,77,0.00,,,0.00,Rainwise IP-100,2013-03-12 15:08:00,
2013-03-12 10:13:00,22.8,16.0,28.96,West,270,4.7,15.2,77,0.00,,,0.00,Rainwise IP-100,2013-03-12 15:13:00,
2013-03-12 10:18:00,22.9,16.0,28.95,NW,315,9.8,19.1,76,0.00,,,0.00,Rainwise IP-100,2013-03-12 15:18:00,
2013-03-12 10:23:00,22.9,16.0,28.96,WNW,292,13.8,18.2,76,0.00,,,0.00,Rainwise IP-100,2013-03-12 15:23:00,
2013-03-12 10:28:00,22.8,16.0,28.96,West,270,10.7,17.7,76,0.00,,,0.00,Rainwise IP-100,2013-03-12 15:28:00,
2013-03-12 10:33:00,23.0,16.0,28.97,West,270,9.1,17.0,76,0.00,,,0.00,Rainwise IP-100,2013-03-12 15:33:00,
2013-03-12 10:38:00,23.1,16.0,28.97,NW,315,5.4,20.1,76,0.00,,,0.00,Rainwise IP-100,2013-03-12 15:38:00,
2013-03-12 10:43:00,23.0,16.0,28.97,WNW,292,9.1,14.7,76,0.00,,,0.00,Rainwise IP-100,2013-03-12 15:43:00,
2013-03-12 10:48:00,23.2,16.0,28.97,WNW,292,1.9,14.7,76,0.00,,,0.00,Rainwise IP-100,2013-03-12 15:48:00,
2013-03-12 10:53:00,23.5,18.0,28.97,WNW,292,12.1,18.4,75,0.00,,,0.00,Rainwise IP-100,2013-03-12 15:53:00,
2013-03-12 10:58:00,23.5,18.0,28.97,WSW,247,7.9,17.5,75,0.00,,,0.00,Rainwise IP-100,2013-03-12 15:58:00,
2013-03-12 11:03:00,23.3,16.0,28.98,West,270,8.6,19.1,76,0.00,,,0.00,Rainwise IP-100,2013-03-12 16:03:00,
2013-03-12 11:08:00,23.2,16.0,28.97,WNW,292,6.5,17.5,76,0.00,,,0.00,Rainwise IP-100,2013-03-12 16:08:00,
2013-03-12 11:13:00,23.3,16.0,28.98,West,270,9.8,20.8,76,0.00,,,0.00,Rainwise IP-100,2013-03-12 16:13:00,
2013-03-12 11:18:00,23.4,16.0,28.98,WNW,292,16.1,24.2,77,0.00,,,0.00,Rainwise IP-100,2013-03-12 16:18:00,
2013-03-12 11:23:00,23.4,16.0,28.98,NW,315,12.1,21.0,77,0.00,,,0.00,Rainwise IP-100,2013-03-12 16:23:00,
2013-03-12 11:28:00,23.5,18.0,28.98,West,270,2.1,19.1,77,0.00,,,0.00,Rainwise IP-100,2013-03-12 16:28:00,
2013-03-12 11:33:00,24.0,18.0,28.99,WNW,292,11.7,16.8,78,0.00,,,0.00,Rainwise IP-100,2013-03-12 16:33:00,
2013-03-12 11:38:00,24.3,18.0,28.98,West,270,8.9,20.3,78,0.00,,,0.00,Rainwise IP-100,2013-03-12 16:38:00,
2013-03-12 11:43:00,24.0,18.0,28.98,NW,315,11.0,24.0,78,0.00,,,0.00,Rainwise IP-100,2013-03-12 16:43:00,
2013-03-12 11:48:00,23.9,18.0,28.99,NW,315,13.1,20.5,78,0.00,,,0.00,Rainwise IP-100,2013-03-12 16:48:00,
2013-03-12 11:53:00,24.0,18.0,28.99,WNW,292,14.7,18.4,79,0.00,,,0.00,Rainwise IP-100,2013-03-12 16:53:00,
2013-03-12 11:58:00,24.1,18.0,28.99,WNW,292,4.7,18.4,79,0.00,,,0.00,Rainwise IP-100,2013-03-12 16:58:00,
2013-03-12 12:03:00,24.3,18.0,28.99,WNW,292,18.2,18.2,80,0.00,,,0.00,Rainwise IP-100,2013-03-12 17:03:00,
2013-03-12 12:08:00,24.3,18.0,29.00,NW,315,10.7,21.0,79,0.00,,,0.00,Rainwise IP-100,2013-03-12 17:08:00,
2013-03-12 12:13:00,24.2,18.0,28.99,WNW,292,14.9,18.2,79,0.00,,,0.00,Rainwise IP-100,2013-03-12 17:13:00,
2013-03-12 12:18:00,24.2,18.0,29.00,North,360,4.9,18.9,80,0.00,,,0.00,Rainwise IP-100,2013-03-12 17:18:00,
2013-03-12 12:23:00,24.1,18.0,28.99,NW,315,13.3,19.8,80,0.00,,,0.00,Rainwise IP-100,2013-03-12 17:23:00,
2013-03-12 12:28:00,24.1,21.0,29.00,SW,225,4.4,20.3,81,0.00,,,0.00,Rainwise IP-100,2013-03-12 17:28:00,
2013-03-12 12:33:00,24.1,21.0,29.00,WNW,292,5.1,18.7,82,0.00,,,0.00,Rainwise IP-100,2013-03-12 17:33:00,
2013-03-12 12:38:00,24.5,23.0,29.00,WNW,292,12.1,17.5,83,0.00,,,0.00,Rainwise IP-100,2013-03-12 17:38:00,
2013-03-12 12:43:00,24.9,23.0,29.00,NNW,337,3.5,14.7,83,0.00,,,0.00,Rainwise IP-100,2013-03-12 17:43:00,
2013-03-12 12:48:00,25.2,21.0,29.00,WNW,292,9.3,18.7,81,0.00,,,0.00,Rainwise IP-100,2013-03-12 17:48:00,
2013-03-12 12:53:00,25.1,21.0,29.00,NW,315,2.3,22.4,79,0.00,,,0.00,Rainwise IP-100,2013-03-12 17:53:00,
2013-03-12 12:58:00,25.3,21.0,29.00,NW,315,3.5,17.3,79,0.00,,,0.00,Rainwise IP-100,2013-03-12 17:58:00,
2013-03-12 13:03:00,25.3,21.0,29.00,West,270,11.9,20.1,79,0.00,,,0.00,Rainwise IP-100,2013-03-12 18:03:00,
2013-03-12 13:08:00,25.2,21.0,28.99,WNW,292,14.0,19.1,78,0.00,,,0.00,Rainwise IP-100,2013-03-12 18:08:00,
2013-03-12 13:13:00,25.3,21.0,29.00,WSW,247,2.3,18.0,79,0.00,,,0.00,Rainwise IP-100,2013-03-12 18:13:00,
2013-03-12 13:18:00,25.6,21.0,29.00,West,270,7.2,16.8,80,0.00,,,0.00,Rainwise IP-100,2013-03-12 18:18:00,
2013-03-12 13:23:00,25.8,21.0,29.00,West,270,7.2,15.6,81,0.00,,,0.00,Rainwise IP-100,2013-03-12 18:23:00,
2013-03-12 13:28:00,25.9,21.0,29.00,West,270,3.7,17.7,81,0.00,,,0.00,Rainwise IP-100,2013-03-12 18:28:00,
2013-03-12 13:33:00,25.9,21.0,29.00,WSW,247,8.4,16.6,81,0.00,,,0.00,Rainwise IP-100,2013-03-12 18:33:00,
2013-03-12 13:38:00,25.8,21.0,29.01,NW,315,4.7,14.2,82,0.00,,,0.00,Rainwise IP-100,2013-03-12 18:38:00,
2013-03-12 13:43:00,26.0,21.0,29.01,WNW,292,8.6,13.8,81,0.00,,,0.00,Rainwise IP-100,2013-03-12 18:43:00,
2013-03-12 13:48:00,26.1,21.0,29.00,WNW,292,16.3,24.0,78,0.00,,,0.00,Rainwise IP-100,2013-03-12 18:48:00,
2013-03-12 13:53:00,26.0,21.0,29.01,NNW,337,8.9,24.2,75,0.00,,,0.00,Rainwise IP-100,2013-03-12 18:53:00,
2013-03-12 13:58:00,25.9,18.0,29.00,WNW,292,12.4,18.7,73,0.00,,,0.00,Rainwise IP-100,2013-03-12 18:58:00,
2013-03-12 14:03:00,25.8,18.0,29.00,NW,315,13.5,21.9,72,0.00,,,0.00,Rainwise IP-100,2013-03-12 19:03:00,
2013-03-12 14:08:00,25.9,18.0,29.01,West,270,8.6,16.3,72,0.00,,,0.00,Rainwise IP-100,2013-03-12 19:08:00,
2013-03-12 14:13:00,25.7,21.0,29.01,SW,225,2.1,14.5,76,0.00,,,0.00,Rainwise IP-100,2013-03-12 19:13:00,
2013-03-12 14:18:00,25.5,21.0,29.00,WSW,247,10.0,15.9,79,0.00,,,0.00,Rainwise IP-100,2013-03-12 19:18:00,
2013-03-12 14:23:00,25.6,21.0,29.01,WSW,247,7.7,14.5,79,0.00,,,0.00,Rainwise IP-100,2013-03-12 19:23:00,
2013-03-12 14:28:00,25.7,21.0,29.01,NW,315,10.7,21.5,79,0.00,,,0.00,Rainwise IP-100,2013-03-12 19:28:00,
2013-03-12 14:33:00,25.9,21.0,29.01,West,270,12.1,18.7,78,0.00,,,0.00,Rainwise IP-100,2013-03-12 19:33:00,
2013-03-12 14:38:00,26.0,21.0,29.01,WNW,292,9.1,20.8,76,0.00,,,0.00,Rainwise IP-100,2013-03-12 19:38:00,
2013-03-12 14:43:00,26.0,21.0,29.01,WNW,292,3.5,17.3,76,0.00,,,0.00,Rainwise IP-100,2013-03-12 19:43:00,
2013-03-12 14:48:00,26.0,21.0,29.01,WSW,247,8.2,16.3,76,0.00,,,0.00,Rainwise IP-100,2013-03-12 19:48:00,
2013-03-12 14:53:00,25.9,21.0,29.00,West,270,11.4,17.7,76,0.00,,,0.00,Rainwise IP-100,2013-03-12 19:53:00,
2013-03-12 14:58:00,25.8,21.0,29.00,West,270,18.2,20.1,77,0.00,,,0.00,Rainwise IP-100,2013-03-12 19:58:00,
2013-03-12 15:03:00,26.0,21.0,29.01,WNW,292,7.9,18.4,77,0.00,,,0.00,Rainwise IP-100,2013-03-12 20:03:00,
2013-03-12 15:08:00,26.2,21.0,29.01,WNW,292,15.6,23.3,75,0.00,,,0.00,Rainwise IP-100,2013-03-12 20:08:00,
2013-03-12 15:13:00,26.2,18.0,29.01,West,270,7.7,20.8,73,0.00,,,0.00,Rainwise IP-100,2013-03-12 20:13:00,
2013-03-12 15:18:00,26.3,18.0,29.01,WNW,292,12.8,18.2,73,0.00,,,0.00,Rainwise IP-100,2013-03-12 20:18:00,
2013-03-12 15:23:00,26.4,18.0,29.01,WNW,292,12.1,23.3,73,0.00,,,0.00,Rainwise IP-100,2013-03-12 20:23:00,
2013-03-12 15:28:00,26.4,18.0,29.01,WSW,247,5.8,20.3,73,0.00,,,0.00,Rainwise IP-100,2013-03-12 20:28:00,
2013-03-12 15:33:00,26.5,21.0,29.02,West,270,12.6,15.4,73,0.00,,,0.00,Rainwise IP-100,2013-03-12 20:33:00,
2013-03-12 15:38:00,26.4,18.0,29.01,West,270,14.9,23.3,72,0.00,,,0.00,Rainwise IP-100,2013-03-12 20:38:00,
2013-03-12 15:43:00,26.5,21.0,29.01,SW,225,2.8,21.9,71,0.00,,,0.00,Rainwise IP-100,2013-03-12 20:43:00,
2013-03-12 15:48:00,26.9,18.0,29.01,NW,315,14.0,19.6,69,0.00,,,0.00,Rainwise IP-100,2013-03-12 20:48:00,
2013-03-12 15:53:00,27.1,18.0,29.02,WNW,292,15.9,22.2,68,0.00,,,0.00,Rainwise IP-100,2013-03-12 20:53:00,
2013-03-12 15:58:00,27.2,18.0,29.02,SW,225,3.3,24.7,68,0.00,,,0.00,Rainwise IP-100,2013-03-12 20:58:00,
2013-03-12 16:03:00,27.2,18.0,29.02,West,270,16.3,25.4,67,0.00,,,0.00,Rainwise IP-100,2013-03-12 21:03:00,
2013-03-12 16:08:00,27.1,18.0,29.02,NW,315,14.0,24.2,65,0.00,,,0.00,Rainwise IP-100,2013-03-12 21:08:00,
2013-03-12 16:13:00,27.0,18.0,29.02,WNW,292,13.1,19.4,64,0.00,,,0.00,Rainwise IP-100,2013-03-12 21:13:00,
2013-03-12 16:18:00,27.0,18.0,29.02,NW,315,10.0,19.4,65,0.00,,,0.00,Rainwise IP-100,2013-03-12 21:18:00,
2013-03-12 16:23:00,27.0,18.0,29.02,WNW,292,11.7,22.9,65,0.00,,,0.00,Rainwise IP-100,2013-03-12 21:23:00,
2013-03-12 16:28:00,27.1,18.0,29.03,NW,315,15.4,20.3,65,0.00,,,0.00,Rainwise IP-100,2013-03-12 21:28:00,
2013-03-12 16:33:00,27.1,18.0,29.03,WNW,292,5.8,22.9,64,0.00,,,0.00,Rainwise IP-100,2013-03-12 21:33:00,
2013-03-12 16:38:00,26.9,18.0,29.03,NW,315,9.3,21.2,65,0.00,,,0.00,Rainwise IP-100,2013-03-12 21:38:00,
2013-03-12 16:43:00,26.7,21.0,29.02,NW,315,22.4,24.7,70,0.00,,,0.00,Rainwise IP-100,2013-03-12 21:43:00,
2013-03-12 16:48:00,26.6,21.0,29.04,WNW,292,13.5,24.2,71,0.00,,,0.00,Rainwise IP-100,2013-03-12 21:48:00,
2013-03-12 16:53:00,26.6,21.0,29.02,WNW,292,25.9,25.9,70,0.00,,,0.00,Rainwise IP-100,2013-03-12 21:53:00,
2013-03-12 16:58:00,26.4,18.0,29.03,NW,315,11.9,25.9,70,0.00,,,0.00,Rainwise IP-100,2013-03-12 21:58:00,
2013-03-12 17:03:00,26.7,21.0,29.04,NNW,337,4.9,18.0,70,0.00,,,0.00,Rainwise IP-100,2013-03-12 22:03:00,
2013-03-12 17:08:00,27.0,18.0,29.05,NW,315,8.4,22.9,69,0.00,,,0.00,Rainwise IP-100,2013-03-12 22:08:00,
2013-03-12 17:13:00,27.1,18.0,29.05,NNW,337,10.3,17.5,67,0.00,,,0.00,Rainwise IP-100,2013-03-12 22:13:00,
2013-03-12 17:18:00,27.0,18.0,29.05,WNW,292,18.7,24.5,66,0.00,,,0.00,Rainwise IP-100,2013-03-12 22:18:00,
2013-03-12 17:23:00,26.9,18.0,29.05,WNW,292,16.6,21.7,66,0.00,,,0.00,Rainwise IP-100,2013-03-12 22:23:00,
2013-03-12 17:28:00,26.8,18.0,29.04,WNW,292,21.9,30.1,66,0.00,,,0.00,Rainwise IP-100,2013-03-12 22:28:00,
2013-03-12 17:33:00,26.3,16.0,29.06,NW,315,9.3,26.8,67,0.00,,,0.00,Rainwise IP-100,2013-03-12 22:33:00,
2013-03-12 17:38:00,25.9,18.0,29.06,WNW,292,12.8,27.0,70,0.00,,,0.00,Rainwise IP-100,2013-03-12 22:38:00,
2013-03-12 17:43:00,25.9,18.0,29.05,WNW,292,11.0,18.0,72,0.00,,,0.00,Rainwise IP-100,2013-03-12 22:43:00,
2013-03-12 17:48:00,26.3,18.0,29.06,WNW,292,13.8,18.2,71,0.00,,,0.00,Rainwise IP-100,2013-03-12 22:48:00,
2013-03-12 17:53:00,26.6,18.0,29.05,West,270,9.6,19.6,69,0.00,,,0.00,Rainwise IP-100,2013-03-12 22:53:00,
2013-03-12 17:58:00,26.6,18.0,29.05,WNW,292,11.9,24.0,69,0.00,,,0.00,Rainwise IP-100,2013-03-12 22:58:00,
2013-03-12 18:03:00,26.5,18.0,29.06,WNW,292,14.2,26.8,68,0.00,,,0.00,Rainwise IP-100,2013-03-12 23:03:00,
2013-03-12 18:08:00,26.5,18.0,29.06,WNW,292,7.2,18.0,68,0.00,,,0.00,Rainwise IP-100,2013-03-12 23:08:00,
2013-03-12 18:13:00,26.5,18.0,29.06,West,270,12.8,22.6,68,0.00,,,0.00,Rainwise IP-100,2013-03-12 23:13:00,
2013-03-12 18:18:00,26.5,18.0,29.07,WNW,292,12.1,18.7,67,0.00,,,0.00,Rainwise IP-100,2013-03-12 23:18:00,
2013-03-12 18:23:00,26.5,18.0,29.07,NW,315,9.1,18.7,67,0.00,,,0.00,Rainwise IP-100,2013-03-12 23:23:00,
2013-03-12 18:28:00,26.4,18.0,29.06,WNW,292,13.1,21.7,68,0.00,,,0.00,Rainwise IP-100,2013-03-12 23:28:00,
2013-03-12 18:33:00,26.2,18.0,29.07,NW,315,11.4,20.5,68,0.00,,,0.00,Rainwise IP-100,2013-03-12 23:33:00,
2013-03-12 18:38:00,26.2,16.0,29.07,WNW,292,15.4,20.3,67,0.00,,,0.00,Rainwise IP-100,2013-03-12 23:38:00,
2013-03-12 18:43:00,26.3,16.0,29.08,WNW,292,15.2,19.1,67,0.00,,,0.00,Rainwise IP-100,2013-03-12 23:43:00,
2013-03-12 18:48:00,26.3,16.0,29.08,NW,315,12.1,17.3,66,0.00,,,0.00,Rainwise IP-100,2013-03-12 23:48:00,
2013-03-12 18:53:00,26.3,16.0,29.08,WNW,292,11.4,21.0,63,0.00,,,0.00,Rainwise IP-100,2013-03-12 23:53:00,
2013-03-12 18:58:00,26.3,14.0,29.08,NNW,337,13.1,18.2,59,0.00,,,0.00,Rainwise IP-100,2013-03-12 23:58:00,
2013-03-12 19:03:00,26.2,14.0,29.08,NW,315,11.9,16.1,57,0.00,,,0.00,Rainwise IP-100,2013-03-13 00:03:00,
2013-03-12 19:08:00,26.1,14.0,29.09,WNW,292,13.8,17.5,56,0.00,,,0.00,Rainwise IP-100,2013-03-13 00:08:00,
2013-03-12 19:13:00,26.0,14.0,29.09,NW,315,10.0,19.6,56,0.00,,,0.00,Rainwise IP-100,2013-03-13 00:13:00,
2013-03-12 19:18:00,25.9,14.0,29.09,WNW,292,14.0,18.4,57,0.00,,,0.00,Rainwise IP-100,2013-03-13 00:18:00,
2013-03-12 19:23:00,25.8,14.0,29.09,NW,315,10.3,16.6,56,0.00,,,0.00,Rainwise IP-100,2013-03-13 00:23:00,
2013-03-12 19:28:00,25.7,14.0,29.09,NW,315,9.3,18.4,56,0.00,,,0.00,Rainwise IP-100,2013-03-13 00:28:00,
2013-03-12 19:33:00,25.6,14.0,29.10,WNW,292,19.8,19.8,56,0.00,,,0.00,Rainwise IP-100,2013-03-13 00:33:00,
2013-03-12 19:38:00,25.5,14.0,29.11,WNW,292,11.2,19.8,57,0.00,,,0.00,Rainwise IP-100,2013-03-13 00:38:00,
2013-03-12 19:43:00,25.3,14.0,29.11,NW,315,9.3,13.8,57,0.00,,,0.00,Rainwise IP-100,2013-03-13 00:43:00,
2013-03-12 19:48:00,25.1,14.0,29.11,NW,315,11.4,17.5,58,0.00,,,0.00,Rainwise IP-100,2013-03-13 00:48:00,
2013-03-12 19:53:00,25.0,14.0,29.12,NNW,337,8.9,18.9,58,0.00,,,0.00,Rainwise IP-100,2013-03-13 00:53:00,
2013-03-12 19:58:00,25.0,14.0,29.12,NW,315,9.6,19.1,59,0.00,,,0.00,Rainwise IP-100,2013-03-13 00:58:00,
2013-03-12 20:03:00,24.9,14.0,29.12,NW,315,8.6,15.6,59,0.00,,,0.00,Rainwise IP-100,2013-03-13 01:03:00,
2013-03-12 20:08:00,24.8,14.0,29.12,NW,315,9.3,12.6,59,0.00,,,0.00,Rainwise IP-100,2013-03-13 01:08:00,
2013-03-12 20:13:00,24.7,14.0,29.13,NW,315,17.3,17.3,60,0.00,,,0.00,Rainwise IP-100,2013-03-13 01:13:00,
2013-03-12 20:18:00,24.7,14.0,29.13,WNW,292,6.8,19.6,60,0.00,,,0.00,Rainwise IP-100,2013-03-13 01:18:00,
2013-03-12 20:23:00,24.6,14.0,29.13,NW,315,11.2,13.8,59,0.00,,,0.00,Rainwise IP-100,2013-03-13 01:23:00,
2013-03-12 20:28:00,24.5,14.0,29.13,NW,315,13.5,15.6,60,0.00,,,0.00,Rainwise IP-100,2013-03-13 01:28:00,
2013-03-12 20:33:00,24.5,14.0,29.14,NW,315,9.6,14.5,60,0.00,,,0.00,Rainwise IP-100,2013-03-13 01:33:00,
2013-03-12 20:38:00,24.5,14.0,29.14,NNW,337,9.6,15.9,60,0.00,,,0.00,Rainwise IP-100,2013-03-13 01:38:00,
2013-03-12 20:43:00,24.5,14.0,29.14,NW,315,15.9,17.5,59,0.00,,,0.00,Rainwise IP-100,2013-03-13 01:43:00,
2013-03-12 20:48:00,24.5,14.0,29.14,NNW,337,7.7,16.1,59,0.00,,,0.00,Rainwise IP-100,2013-03-13 01:48:00,
2013-03-12 20:53:00,24.4,14.0,29.15,NNW,337,12.6,14.2,59,0.00,,,0.00,Rainwise IP-100,2013-03-13 01:53:00,
2013-03-12 20:58:00,24.3,14.0,29.15,WNW,292,7.5,16.6,59,0.00,,,0.00,Rainwise IP-100,2013-03-13 01:58:00,
2013-03-12 21:03:00,24.2,14.0,29.15,WNW,292,10.7,13.1,59,0.00,,,0.00,Rainwise IP-100,2013-03-13 02:03:00,
2013-03-12 21:09:00,24.1,14.0,29.15,NW,315,13.8,13.8,60,0.00,,,0.00,Rainwise IP-100,2013-03-13 02:09:00,
2013-03-12 21:14:00,24.1,14.0,29.15,WNW,292,8.2,15.4,60,0.00,,,0.00,Rainwise IP-100,2013-03-13 02:14:00,
2013-03-12 21:19:00,24.0,14.0,29.16,WNW,292,6.5,14.7,60,0.00,,,0.00,Rainwise IP-100,2013-03-13 02:19:00,
2013-03-12 21:24:00,23.9,14.0,29.16,WNW,292,7.7,16.3,60,0.00,,,0.00,Rainwise IP-100,2013-03-13 02:24:00,
2013-03-12 21:29:00,23.8,14.0,29.16,NW,315,7.5,14.0,60,0.00,,,0.00,Rainwise IP-100,2013-03-13 02:29:00,
2013-03-12 21:34:00,23.6,14.0,29.16,WNW,292,3.0,11.9,61,0.00,,,0.00,Rainwise IP-100,2013-03-13 02:34:00,
2013-03-12 21:39:00,23.4,11.0,29.17,WNW,292,7.2,11.9,62,0.00,,,0.00,Rainwise IP-100,2013-03-13 02:39:00,
2013-03-12 21:44:00,23.0,14.0,29.17,WSW,247,5.8,10.0,63,0.00,,,0.00,Rainwise IP-100,2013-03-13 02:44:00,
2013-03-12 21:49:00,22.9,14.0,29.17,WSW,247,6.5,10.5,63,0.00,,,0.00,Rainwise IP-100,2013-03-13 02:49:00,
2013-03-12 21:54:00,22.7,14.0,29.17,WSW,247,5.8,10.7,64,0.00,,,0.00,Rainwise IP-100,2013-03-13 02:54:00,
2013-03-12 21:59:00,22.4,14.0,29.17,WNW,292,7.9,12.4,65,0.00,,,0.00,Rainwise IP-100,2013-03-13 02:59:00,
2013-03-12 22:04:00,22.3,14.0,29.18,West,270,4.2,12.1,66,0.00,,,0.00,Rainwise IP-100,2013-03-13 03:04:00,
2013-03-12 22:09:00,22.2,14.0,29.17,NW,315,10.0,15.4,68,0.00,,,0.00,Rainwise IP-100,2013-03-13 03:09:00,
2013-03-12 22:14:00,22.1,14.0,29.18,WSW,247,11.2,16.3,69,0.00,,,0.00,Rainwise IP-100,2013-03-13 03:14:00,
2013-03-12 22:19:00,22.1,16.0,29.18,WNW,292,12.4,15.6,71,0.00,,,0.00,Rainwise IP-100,2013-03-13 03:19:00,
2013-03-12 22:24:00,22.0,16.0,29.18,NW,315,6.8,17.3,72,0.00,,,0.00,Rainwise IP-100,2013-03-13 03:24:00,
2013-03-12 22:29:00,21.7,16.0,29.18,West,270,6.5,12.8,73,0.00,,,0.00,Rainwise IP-100,2013-03-13 03:29:00,
2013-03-12 22:34:00,21.4,14.0,29.18,NW,315,6.3,12.6,73,0.00,,,0.00,Rainwise IP-100,2013-03-13 03:34:00,
2013-03-12 22:39:00,21.1,14.0,29.18,SW,225,2.6,13.1,74,0.00,,,0.00,Rainwise IP-100,2013-03-13 03:39:00,
2013-03-12 22:44:00,20.8,14.0,29.19,WNW,292,6.5,12.4,75,0.00,,,0.00,Rainwise IP-100,2013-03-13 03:44:00,
2013-03-12 22:49:00,20.6,14.0,29.18,West,270,3.7,14.2,76,0.00,,,0.00,Rainwise IP-100,2013-03-13 03:49:00,
2013-03-12 22:54:00,20.5,14.0,29.19,West,270,5.4,14.5,76,0.00,,,0.00,Rainwise IP-100,2013-03-13 03:54:00,
2013-03-12 22:59:00,20.4,14.0,29.19,West,270,11.7,16.6,77,0.00,,,0.00,Rainwise IP-100,2013-03-13 03:59:00,
2013-03-12 23:00:00,20.4,14.0,29.19,WNW,292,5.1,16.6,77,0.00,,,0.00,Rainwise IP-100,2013-03-13 04:00:00,
2013-03-12 23:06:00,20.3,14.0,29.19,WNW,292,10.7,17.3,77,0.00,,,0.00,Rainwise IP-100,2013-03-13 04:06:00,
2013-03-12 23:11:00,20.3,14.0,29.20,WNW,292,10.5,13.3,77,0.00,,,0.00,Rainwise IP-100,2013-03-13 04:11:00,
2013-03-12 23:16:00,20.2,14.0,29.20,West,270,8.4,15.9,77,0.00,,,0.00,Rainwise IP-100,2013-03-13 04:16:00,
2013-03-12 23:21:00,20.1,16.0,29.19,WNW,292,5.1,15.9,78,0.00,,,0.00,Rainwise IP-100,2013-03-13 04:21:00,
2013-03-12 23:26:00,20.0,16.0,29.20,WNW,292,10.5,15.4,78,0.00,,,0.00,Rainwise IP-100,2013-03-13 04:26:00,
2013-03-12 23:31:00,19.9,16.0,29.20,WSW,247,3.3,17.0,79,0.00,,,0.00,Rainwise IP-100,2013-03-13 04:31:00,
2013-03-12 23:36:00,19.8,16.0,29.20,WNW,292,11.9,18.7,79,0.00,,,0.00,Rainwise IP-100,2013-03-13 04:36:00,
2013-03-12 23:41:00,19.7,16.0,29.20,WNW,292,14.2,17.7,79,0.00,,,0.00,Rainwise IP-100,2013-03-13 04:41:00,
2013-03-12 23:46:00,19.6,16.0,29.21,WNW,292,15.6,18.4,80,0.00,,,0.00,Rainwise IP-100,2013-03-13 04:46:00,
2013-03-12 23:51:00,19.5,16.0,29.21,WNW,292,7.5,16.1,80,0.00,,,0.00,Rainwise IP-100,2013-03-13 04:51:00,
2013-03-12 23:56:00,19.4,16.0,29.21,NW,315,8.2,18.4,80,0.00,,,0.00,Rainwise IP-100,2013-03-13 04:56:00,